Satellite-Ground Cal/Val Region Overpasses Predictions

Prediction of Satellite NPP Overpassing Cal/Val Region: PacNW

Region Location: (Latitude: 10.00, Longitude: 139.50) to (Latitude: 22.70, Longitude: 165.60).

Table of predicted overpasses for the next 14.0 days since TLE Epoch: 11/9/2018
Interval Starting Time Starting Location Ending Time Ending Location
1 11/10/2018 02:10:39 ( 19.27, 165.60) 11/10/2018 02:11:37 ( 22.67, 164.76)
2 11/10/2018 03:49:32 ( 10.06, 142.38) 11/10/2018 03:52:58 ( 22.15, 139.51)
3 11/10/2018 14:39:55 ( 22.66, 164.98) 11/10/2018 14:43:30 ( 10.04, 161.99)
4 11/10/2018 16:21:25 ( 22.66, 139.61) 11/10/2018 16:21:32 ( 22.25, 139.51)
5 11/11/2018 03:30:30 ( 10.02, 147.15) 11/11/2018 03:34:06 ( 22.70, 144.13)
6 11/11/2018 16:02:23 ( 22.70, 144.37) 11/11/2018 16:05:59 ( 10.02, 141.36)
7 11/12/2018 03:11:29 ( 10.04, 151.90) 11/12/2018 03:15:04 ( 22.66, 148.90)
8 11/12/2018 15:43:21 ( 22.68, 149.12) 11/12/2018 15:46:56 ( 10.06, 146.13)
9 11/13/2018 02:52:27 ( 10.05, 156.65) 11/13/2018 02:56:02 ( 22.68, 153.65)
10 11/13/2018 15:24:20 ( 22.66, 153.87) 11/13/2018 15:27:55 ( 10.04, 150.88)
11 11/14/2018 02:33:25 ( 10.01, 161.41) 11/14/2018 02:37:01 ( 22.70, 158.40)
12 11/14/2018 15:05:17 ( 22.70, 158.64) 11/14/2018 15:08:53 ( 10.02, 155.63)
13 11/15/2018 02:15:05 ( 12.50, 165.60) 11/15/2018 02:17:58 ( 22.66, 163.17)
14 11/15/2018 03:55:53 ( 10.04, 140.79) 11/15/2018 03:57:27 ( 15.56, 139.51)
15 11/15/2018 14:46:16 ( 22.68, 163.39) 11/15/2018 14:49:51 ( 10.06, 160.39)
16 11/16/2018 03:36:51 ( 10.00, 145.55) 11/16/2018 03:40:27 ( 22.68, 142.54)
17 11/16/2018 14:30:16 ( 11.98, 165.59) 11/16/2018 14:30:49 ( 10.04, 165.14)
18 11/16/2018 16:08:44 ( 22.65, 142.76) 11/16/2018 16:12:19 ( 10.03, 139.77)
19 11/17/2018 03:17:49 ( 10.02, 150.30) 11/17/2018 03:21:24 ( 22.64, 147.31)
20 11/17/2018 15:49:42 ( 22.69, 147.53) 11/17/2018 15:53:18 ( 10.01, 144.52)
21 11/18/2018 02:58:48 ( 10.04, 155.05) 11/18/2018 03:02:23 ( 22.67, 152.06)
22 11/18/2018 15:30:40 ( 22.67, 152.28) 11/18/2018 15:34:15 ( 10.05, 149.28)
23 11/19/2018 02:39:45 ( 10.00, 159.82) 11/19/2018 02:43:21 ( 22.69, 156.81)
24 11/19/2018 15:11:39 ( 22.65, 157.03) 11/19/2018 15:15:14 ( 10.03, 154.03)
25 11/20/2018 02:20:44 ( 10.03, 164.57) 11/20/2018 02:24:19 ( 22.65, 161.57)
26 11/20/2018 14:52:37 ( 22.69, 161.80) 11/20/2018 14:56:13 ( 10.01, 158.78)
27 11/21/2018 03:43:12 ( 10.05, 143.94) 11/21/2018 03:46:47 ( 22.68, 140.94)
28 11/21/2018 14:34:41 ( 18.79, 165.59) 11/21/2018 14:37:10 ( 10.04, 163.55)
29 11/21/2018 16:15:05 ( 22.66, 141.17) 11/21/2018 16:17:02 ( 15.79, 139.51)
30 11/22/2018 03:24:10 ( 10.02, 148.71) 11/22/2018 03:27:45 ( 22.64, 145.71)
31 11/22/2018 15:56:03 ( 22.69, 145.93) 11/22/2018 15:59:39 ( 10.02, 142.92)
32 11/23/2018 03:05:08 ( 10.04, 153.46) 11/23/2018 03:08:43 ( 22.66, 150.46)


NCC Satellite Cal/Val Overpasses Prediction Service
